Regional Weather Roundup
Issued by NWS State College, PA

Home | Current Version | Previous Version | Text Only | Print | Product List | Glossary Off
Versions: 1 2 3 4 5 6 7 8 9 10 11 12 13 14 15 16 17 18 19 20 21 22 23 24 25 26 27 28 29 30 31 32 33 34 35 36 37 38 39 40 41 42 43 44 45 46 47 48 49 50

000
ASUS41 KCTP 221003
RWRCTP
NATIONAL WEATHER SERVICE STATE COLLEGE PA
600 AM EDT FRI SEP 22 2017

Note: "fair" indicates few or no clouds below 12,000 feet with no
significant weather and/or obstructions to visibility.

* = STATION THAT DOES NOT REPORT PRECIPITATION /E.G. RAIN...SNOW...ETC/
    THUNDER OR FOG.

PAZ002>004-007>009-013>016-020>023-029>032-221100-
WESTERN PENNSYLVANIA

CITY           SKY/WX    TMP DP  RH WIND       PRES   REMARKS
ERIE           CLEAR     65  59  81 CALM      30.13R
MEADVILLE      CLOUDY    62  60  93 CALM      30.16R
FRANKLIN*      CLOUDY    57  57 100 CALM      30.16S
NEW CASTLE     FAIR      56  56 100 CALM      30.15R FOG
BEAVER COUNTY  NOT AVBL
BUTLER*        PTCLDY    56  56 100 NE5       30.15R
PITTSBURGH INT MOCLDY    62  59  90 CALM      30.13R
PITTSBURGH     PTCLDY    63  60  90 CALM      30.12R
INDIANA*       CLEAR     59  59 100 CALM      30.17R
LATROBE        PTCLDY    55  55 100 CALM      30.14R
WASHINGTON CO* CLOUDY    55  54  94 CALM      30.13R VSB 1/4
$$

PAZ004>006-010>012-017>019-024>028-033>037-041-042-045-046-049>053-221100-
CENTRAL PENNSYLVANIA

CITY           SKY/WX    TMP DP  RH WIND       PRES   REMARKS
BRADFORD       CLOUDY    53  53 100 CALM      30.18R FOG
DUBOIS         PTCLDY    60  56  86 N3        30.15R
CLEARFIELD     PTCLDY    56  56 100 SW3       30.15R
JOHNSTOWN      CLEAR     61  56  83 W5        30.16R
ALTOONA        CLEAR     57  56  96 CALM      30.14R
STATE COLLEGE  PTCLDY    59  59 100 CALM      30.12S FOG
WILLIAMSPORT   MOCLDY    63  62  97 NW6       30.08S
SELINSGROVE    MOCLDY    58  58 100 CALM      30.09R FOG
FT INDIANTOWN  MOCLDY    67  64  89 CALM      30.06R
CAPITAL CITY   PTCLDY    64  60  87 W5        30.06S
HARRISBURG     MOCLDY    67  65  93 NW6       30.05R
YORK           PTCLDY    59  59 100 CALM      30.07R
$$

PAZ038>040-043-044-047-048-054-055-060>062-067>071-221100-
EASTERN PENNSYLVANIA

CITY           SKY/WX    TMP DP  RH WIND       PRES   REMARKS
SCRANTON       CLOUDY    59  58  96 E3        30.10R
MOUNT POCONO   MOCLDY    57  56  96 NW8       30.10S
ALLENTOWN      CLOUDY    64  59  83 NW3       30.05S
QUAKERTOWN*    MOSUNNY   61  61 100 CALM      30.06S
READING        CLOUDY    65  64  97 NW5       30.04S
LANCASTER      CLOUDY    64  64 100 W3        30.06R
COATESVILLE    CLOUDY    68  63  83 N5        30.06F
POTTSTOWN      CLOUDY    64  62  93 CALM      30.06S
BLUE BELL      MOCLDY    61  61 100 CALM      30.05R
DOYLESTOWN     MOCLDY    65  60  84 N6        30.03S
WILLOW GROVE   NOT AVBL
NORTH PHILA    CLOUDY    68  57  68 N6        30.04R
PHILADELPHIA   CLOUDY    71  58  63 N9        30.02S
$$




USA.gov is the U.S. government's official web portal to all federal, state and local government web resources and services.